Flag for Switzerland Weather past 2 weeks in Kreuzlingen, Thurgau, Switzerland

Now
32 °F

Light snow. Low clouds.


Feels Like: 32 °F
Forecast: 2 / 25 °F
Wind: 2 mph from West

Location: Konstanz

Current Time: Dec 28, 2014 at 6:21:42 AM

Latest Report: Dec 28, 2014 at 6:00 AM


Visibility: 5 mi

Pressure: 29.66 "Hg

Humidity: 97%

Dew point: 31 °F

Location of KreuzlingenLocation

Historic Weather in Kreuzlingen — Graph

°F

Kreuzlingen temperature yesterday

Maximum temperature yesterday: 35 °F (at 3:00 PM)
Minimum temperature yesterday: 29 °F (at 2:00 AM)
Average temperature yesterday: 32 °F

Past Weeks' High & Low Weather Summary

 TemperatureHumidityPressure
High54 °F (Dec 19, 2:00 PM)100% (Dec 16, 3:00 AM)30.59 "Hg (Dec 16, 3:00 AM)
Low29 °F (Dec 27, 2:00 AM)49% (Dec 13, 2:00 PM)29.50 "Hg (Dec 27, 6:00 PM)
Average42 °F82%30.19 "Hg
* Reported Dec 13 4:00 AM — Dec 28 4:00 AM, Kreuzlingen, Weather by CustomWeather, © 2014

Note: Actual official high and low records may vary slightly from our data, if they occured in-between our weather recording intervals... More about our weather records

Advertising

Kreuzlingen weather history for previous 24 hours

 ConditionsComfort  
Time TempWeatherWind HumidityBarometerVisibility
4:00 AM
Dec 28
33 °FSnow flurries. Low clouds.3 mph85%29.61 "Hg28 mi
3:00 AM34 °FLow clouds.5 mph83%29.58 "Hg43 mi
2:00 AM33 °FLight snow. Overcast.5 mph93%29.57 "Hg3 mi
1:00 AM34 °FFog.6 mph88%29.56 "Hg43 mi
12:00 AM34 °FFog.7 mph89%29.56 "Hg25 mi
11:00 PM
Dec 27
34 °FFog.6 mph90%29.56 "Hg43 mi
10:00 PM34 °FFreezing rain. Passing clouds.7 mph92%29.55 "Hg18 mi
9:00 PM35 °FLight snow. Overcast.8 mph89%29.53 "Hg22 mi
8:00 PM35 °FLight freezing rain. Passing clouds.8 mph89%29.50 "Hg22 mi
7:00 PM35 °FLight freezing rain. Passing clouds.9 mph88%29.50 "Hg31 mi
6:00 PM35 °FClear.9 mph90%29.50 "Hg34 mi
5:00 PM35 °FLight rain. Low clouds.8 mph91%29.54 "Hg10 mi
4:00 PM35 °FLight rain. Low clouds.8 mph87%29.55 "Hg7 mi
3:00 PM35 °FLow clouds.8 mph89%29.57 "Hg12 mi
2:00 PM35 °FLight rain. Low clouds.5 mph92%29.58 "Hg3 mi
1:00 PM32 °FSnow. Dense fog.1 mph97%29.60 "Hg1 mi
12:00 PM32 °FSnow. Ice fog.1 mph96%29.64 "Hg1 mi
11:00 AM31 °FSnow. Ice fog.1 mph96%29.66 "Hg1 mi
10:00 AM30 °FSnow. Ice fog.1 mph97%29.70 "Hg1 mi
9:00 AM30 °FSnow. Low clouds.2 mph97%29.76 "Hg1 mi
8:00 AM30 °FSnow. Low clouds.1 mph96%29.81 "Hg1 mi
7:00 AM31 °FLight snow. Low clouds.1 mph91%29.86 "Hg2 mi
6:00 AM31 °FFog.1 mph92%29.91 "Hg4 mi
Weather by CustomWeather, © 2014

See weather overviewHow to use our weather pages